Weather History for Chipley, FL

Change the Weather History Date:

Sunday, December 9, 2012

  Actual Average (KMAI) Record (KMAI)
Temperature  
Mean Temperature 71 °F 54 °F  
Max Temperature 78 °F 65 °F 81 °F (2007)
Min Temperature 64 °F 43 °F 23 °F (2006)
Degree Days  
Heating Degree Days 0    
Month to date heating degree days  
Since 1 July heating degree days  
Cooling Degree Days 6    
Month to date cooling degree days  
Year to date cooling degree days  
Growing Degree Days 21 (Base 50)    
Moisture  
Dew Point 64 °F    
Average Humidity 78    
Maximum Humidity 88    
Minimum Humidity 65    
Precipitation  
Precipitation 0.00 in 0.12 in 0.17 in (2004)
Month to date precipitation 1.25  
Year to date precipitation 50.92  
Sea Level Pressure  
Sea Level Pressure 29.97 in    
Wind  
Wind Speed 7 mph (SSE)    
Max Wind Speed 14 mph    
Max Gust Speed 24 mph    
Visibility 9 miles    
Events      
T = Trace of Precipitation, MM = Missing Value Source: NWS Daily Summary

Daily Weather History Graph

Daily Weather History Graph

Search for Another Location

Airport:

Trip Planner

Search our weather history database for the weather conditions in past years. The results will help you decide how hot, cold, wet, or windy it might be!

Date:

Astronomy

Dec. 09, 2012 Rise Set
Actual Time 6:28 AM CST 4:41 PM CST
Civil Twilight 6:02 AM CST 5:07 PM CST
Nautical Twilight 5:32 AM CST 5:37 PM CST
Astronomical Twilight 5:02 AM CST 6:07 PM CST
Moon 2:13 AM CST (12/9) 1:37 PM CST (12/9)
Length of Visible Light 11h 05m
Length of Day
10h 12m
Waning Crescent, 18% of the Moon is Illuminated
Dec 9
Waning Crescent
Dec 13
New
Dec 19
First Quarter
Dec 28
Full
Jan 4
Last Quarter

Hourly Weather History & Observations

Time (CST) Temp. Dew Point Humidity Pressure Visibility Wind Dir Wind Speed Gust Speed Precip Events Conditions
12:15 AM 66.2 °F 60.8 °F 83% 29.99 in 5.0 mi South 4.6 mph - N/A   Clear
12:35 AM 66.2 °F 60.8 °F 83% 29.98 in 5.0 mi South 4.6 mph - N/A   Clear
12:55 AM 66.2 °F 60.8 °F 83% 29.98 in 5.0 mi South 3.5 mph - N/A   Clear
1:15 AM 66.2 °F 60.8 °F 83% 29.98 in 5.0 mi South 5.8 mph - N/A   Clear
1:35 AM 66.2 °F 60.8 °F 83% 29.98 in 5.0 mi Calm Calm - N/A   Clear
1:55 AM 66.2 °F 60.8 °F 83% 29.98 in 6.0 mi South 3.5 mph - N/A   Clear
2:15 AM 64.4 °F 60.8 °F 88% 29.97 in 5.0 mi SSE 3.5 mph - N/A   Clear
2:35 AM 64.4 °F 60.8 °F 88% 29.97 in 6.0 mi South 3.5 mph - N/A   Scattered Clouds
2:55 AM 64.4 °F 60.8 °F 88% 29.97 in 7.0 mi SSE 3.5 mph - N/A   Mostly Cloudy
3:15 AM 66.2 °F 60.8 °F 83% 29.98 in 9.0 mi SSE 3.5 mph - N/A   Scattered Clouds
3:35 AM 66.2 °F 60.8 °F 83% 29.97 in 9.0 mi SSE 4.6 mph - N/A   Overcast
3:55 AM 66.2 °F 60.8 °F 83% 29.97 in 10.0 mi SE 6.9 mph - N/A   Mostly Cloudy
4:15 AM 66.2 °F 60.8 °F 83% 29.97 in 10.0 mi ESE 4.6 mph - N/A   Partly Cloudy
4:35 AM 66.2 °F 60.8 °F 83% 29.97 in 10.0 mi ESE 4.6 mph - N/A   Clear
4:55 AM 66.2 °F 60.8 °F 83% 29.98 in 10.0 mi East 4.6 mph - N/A   Clear
5:15 AM 66.2 °F 60.8 °F 83% 29.98 in 10.0 mi ESE 4.6 mph - N/A   Scattered Clouds
5:35 AM 66.2 °F 59.0 °F 78% 29.99 in 10.0 mi ESE 4.6 mph - N/A   Mostly Cloudy
5:55 AM 66.2 °F 59.0 °F 78% 30.00 in 10.0 mi East 5.8 mph - N/A   Mostly Cloudy
6:15 AM 68.0 °F 59.0 °F 73% 30.00 in 10.0 mi East 4.6 mph - N/A   Overcast
6:35 AM 68.0 °F 60.8 °F 78% 30.01 in 10.0 mi East 5.8 mph - N/A   Mostly Cloudy
6:55 AM 68.0 °F 60.8 °F 78% 30.01 in 10.0 mi ESE 6.9 mph - N/A   Overcast
7:15 AM 68.0 °F 60.8 °F 78% 30.01 in 10.0 mi ESE 4.6 mph - N/A   Overcast
7:35 AM 68.0 °F 60.8 °F 78% 30.01 in 10.0 mi East 5.8 mph - N/A   Overcast
7:55 AM 69.8 °F 60.8 °F 73% 30.02 in 10.0 mi East 5.8 mph - N/A   Overcast
8:15 AM 69.8 °F 60.8 °F 73% 30.02 in 10.0 mi ESE 5.8 mph - N/A   Overcast
8:35 AM 69.8 °F 62.6 °F 78% 30.02 in 10.0 mi ESE 5.8 mph - N/A   Overcast
8:55 AM 69.8 °F 62.6 °F 78% 30.02 in 10.0 mi East 3.5 mph - N/A   Mostly Cloudy
9:15 AM 71.6 °F 64.4 °F 78% 30.03 in 10.0 mi South 8.1 mph - N/A   Overcast
9:35 AM 71.6 °F 64.4 °F 78% 30.02 in 10.0 mi South 8.1 mph - N/A   Overcast
9:55 AM 73.4 °F 66.2 °F 78% 30.02 in 10.0 mi South 11.5 mph - N/A   Overcast
10:15 AM 73.4 °F 66.2 °F 78% 30.02 in 10.0 mi South 8.1 mph - N/A   Overcast
10:35 AM 75.2 °F 66.2 °F 73% 30.02 in 10.0 mi South 10.4 mph 20.7 mph N/A   Overcast
10:55 AM 75.2 °F 66.2 °F 73% 30.01 in 10.0 mi South 9.2 mph 17.3 mph N/A   Overcast
11:15 AM 75.2 °F 66.2 °F 73% 30.01 in 10.0 mi South 10.4 mph 18.4 mph N/A   Overcast
11:35 AM 77.0 °F 66.2 °F 69% 29.99 in 10.0 mi South 12.7 mph 19.6 mph N/A   Overcast
11:55 AM 77.0 °F 66.2 °F 69% 29.98 in 10.0 mi South 13.8 mph 20.7 mph N/A   Overcast
12:15 PM 78.8 °F 66.2 °F 65% 29.97 in 10.0 mi South 11.5 mph 19.6 mph N/A   Overcast
12:35 PM 78.8 °F 66.2 °F 65% 29.96 in 10.0 mi South 11.5 mph 20.7 mph N/A   Mostly Cloudy
12:55 PM 78.8 °F 66.2 °F 65% 29.95 in 10.0 mi South 12.7 mph 20.7 mph N/A   Mostly Cloudy
1:15 PM 78.8 °F 66.2 °F 65% 29.95 in 10.0 mi South 11.5 mph 20.7 mph N/A   Overcast
1:35 PM 78.8 °F 66.2 °F 65% 29.94 in 10.0 mi South 12.7 mph 23.0 mph N/A   Overcast
1:55 PM 77.0 °F 66.2 °F 69% 29.94 in 10.0 mi South 12.7 mph 20.7 mph N/A   Overcast
2:15 PM 77.0 °F 66.2 °F 69% 29.94 in 10.0 mi SSW 10.4 mph 17.3 mph N/A   Overcast
2:35 PM 77.0 °F 66.2 °F 69% 29.93 in 10.0 mi South 12.7 mph 21.9 mph N/A   Overcast
2:55 PM 77.0 °F 66.2 °F 69% 29.93 in 10.0 mi South 12.7 mph 21.9 mph N/A   Mostly Cloudy
3:15 PM 77.0 °F 66.2 °F 69% 29.93 in 10.0 mi South 10.4 mph 24.2 mph N/A   Mostly Cloudy
3:35 PM 77.0 °F 66.2 °F 69% 29.93 in 10.0 mi South 13.8 mph 19.6 mph N/A   Overcast
3:55 PM 75.2 °F 66.2 °F 73% 29.93 in 10.0 mi South 13.8 mph 21.9 mph N/A   Overcast
4:15 PM 75.2 °F 66.2 °F 73% 29.93 in 10.0 mi South 13.8 mph 18.4 mph N/A   Overcast
4:35 PM 75.2 °F 66.2 °F 73% 29.93 in 10.0 mi South 9.2 mph - N/A   Overcast
4:55 PM 75.2 °F 66.2 °F 73% 29.93 in 10.0 mi South 11.5 mph 19.6 mph N/A   Mostly Cloudy
5:15 PM 73.4 °F 66.2 °F 78% 29.93 in 10.0 mi South 8.1 mph - N/A   Mostly Cloudy
5:35 PM 73.4 °F 66.2 °F 78% 29.94 in 10.0 mi South 9.2 mph - N/A   Partly Cloudy
5:55 PM 73.4 °F 66.2 °F 78% 29.94 in 10.0 mi South 6.9 mph - N/A   Mostly Cloudy
6:15 PM 73.4 °F 66.2 °F 78% 29.95 in 10.0 mi South 6.9 mph - N/A   Overcast
6:35 PM 73.4 °F 66.2 °F 78% 29.95 in 10.0 mi South 6.9 mph - N/A   Overcast
6:55 PM 73.4 °F 66.2 °F 78% 29.95 in 10.0 mi South 8.1 mph - N/A   Scattered Clouds
7:15 PM 73.4 °F 66.2 °F 78% 29.94 in 10.0 mi South 9.2 mph - N/A   Clear
7:35 PM 71.6 °F 66.2 °F 83% 29.94 in 10.0 mi South 8.1 mph - N/A   Scattered Clouds
7:55 PM 71.6 °F 66.2 °F 83% 29.93 in 10.0 mi South 12.7 mph 16.1 mph N/A   Scattered Clouds
8:15 PM 71.6 °F 66.2 °F 83% 29.94 in 10.0 mi South 9.2 mph - N/A   Overcast
8:35 PM 71.6 °F 66.2 °F 83% 29.94 in 10.0 mi South 8.1 mph - N/A   Overcast
8:55 PM 71.6 °F 66.2 °F 83% 29.93 in 10.0 mi South 9.2 mph - N/A   Overcast
9:15 PM 71.6 °F 66.2 °F 83% 29.93 in 10.0 mi South 8.1 mph - N/A   Overcast
9:35 PM 71.6 °F 66.2 °F 83% 29.93 in 10.0 mi South 10.4 mph - N/A   Overcast
9:55 PM 71.6 °F 66.2 °F 83% 29.93 in 10.0 mi South 10.4 mph 18.4 mph N/A   Overcast
10:15 PM 71.6 °F 66.2 °F 83% 29.93 in 10.0 mi South 11.5 mph 18.4 mph N/A   Overcast
10:35 PM 71.6 °F 66.2 °F 83% 29.93 in 10.0 mi South 11.5 mph 18.4 mph N/A   Overcast
10:55 PM 71.6 °F 66.2 °F 83% 29.93 in 10.0 mi South 10.4 mph - N/A   Overcast
11:15 PM 71.6 °F 66.2 °F 83% 29.93 in 10.0 mi South 9.2 mph - N/A   Overcast
11:35 PM 71.6 °F 66.2 °F 83% 29.93 in 10.0 mi South 9.2 mph - N/A   Overcast
11:55 PM 71.6 °F 66.2 °F 83% 29.93 in 10.0 mi South 10.4 mph - N/A   Overcast